{"data":{"norad_id":65874,"epoch":"2026-09-19T23:53:59.454528Z","epoch_age_seconds":149628,"freshness":"FRESH","line1":"1 65874U 25223W   26262.99582702  .00014390  00000+0  43633-3 0  9992","line2":"2 65874  53.1576 108.1786 0001227 206.2389 153.8551 15.34391975 54006","mean_motion":15.34391975,"eccentricity":0.0001227,"inclination_deg":53.1576,"raan_deg":108.1786,"arg_perigee_deg":206.2389,"mean_anomaly_deg":153.8551,"bstar":0.00043633,"rev_number":5400,"period_min":93.848248913059,"perigee_km":461.88771827813,"apogee_km":463.56646632638,"semimajor_km":6840.8640923023,"source":"CELESTRAK","updated_at":"2026-09-21T09:00:35.752804Z"}}